Location: Il Ritiro
(43.4167°N, 13.1333°E)
Time: 06:46:46
(UTC+00:00)

Terra - Pass Details

Date: 05 July 2020
Orbit: 701 x 703 km, 98.2° (Epoch: 05 August)

Event Time Altitude Azimuth Distance (km) Brightness Sun altitude
Exits shadow 20:31:41 22° 131° (SE) 1,521 2.9 -14.3°
Maximum altitude 20:34:23 44° 70° (ENE) 975 2.4 -14.6°
Drops below altitude 10° 20:38:55 10° 360° (N) 2,180 5.2 -15.1°
Sets 20:41:15 0° 354° (N) 3,103 6.3 -15.4°
